User: anonymous   Login
Location: Montague
(41.3030°N, 74.7940°W)
Time: 00:07:14
(UTC-05:00)
Language:

Cosmos 1461 - Orbit

View from above orbital plane
View from above orbital plane
View from above satellite
View from above satellite

Ground track
Ground track

The orbit data is extracted from the following two-line orbital elements,

1 14064U 83044A   17053.88836362  .00000719  00000-0  78766-4 0  9999
2 14064  65.0008 278.4007 0084565  90.6008 270.4798 14.93462764706281
Epoch (UTC): 22 February 2017 21:19:14
Eccentricity: 0.0084565
inclination: 65.0008°
perigee height: 528 km
apogee height: 646 km
right ascension of ascending node: 278.4007°
argument of perigee: 90.6008°
revolutions per day: 14.93462764
mean anomaly at epoch: 270.4798°
orbit number at epoch: 70628

The dashed part of the orbit path shows where the satellite is in the earth's shadow,  

DLR